Weather History for Merced, CA

Change the Weather History Date:

Saturday, October 13, 2012

  Actual Average Record
Temperature  
Mean Temperature 63 °F 65 °F  
Max Temperature 74 °F 80 °F 92 °F (2010)
Min Temperature 51 °F 49 °F 39 °F (2008)
Degree Days  
Heating Degree Days 2    
Month to date heating degree days 9  
Since 1 July heating degree days 9  
Cooling Degree Days 0    
Month to date cooling degree days 69  
Year to date cooling degree days 1922  
Growing Degree Days 12 (Base 50)    
Moisture  
Dew Point 49 °F    
Average Humidity 65    
Maximum Humidity 89    
Minimum Humidity 41    
Precipitation  
Precipitation 0.00 in 0.02 in 1.65 in (2009)
Month to date precipitation 0.05 0.16  
Year to date precipitation 5.60 9.15  
Since 1 July precipitation 0.09 0.47  
Snow  
Snow 0.00 in - - ()
Month to date snowfall 0.0  
Since 1 July snowfall 0.0  
Since 1 September snowfall 0.0  
Snow Depth 0.00 in    
Sea Level Pressure  
Sea Level Pressure 30.22 in    
Wind  
Wind Speed 5 mph (NW)    
Max Wind Speed 13 mph    
Max Gust Speed 18 mph    
Visibility 8 miles    
Events      
T = Trace of Precipitation, MM = Missing Value Source: NWS Daily Summary

Daily Weather History Graph

Daily Weather History Graph

Search for Another Location

Airport:

Trip Planner

Search our weather history database for the weather conditions in past years. The results will help you decide how hot, cold, wet, or windy it might be!

Date:

Astronomy

Oct. 13, 2012 Rise Set
Actual Time 7:08 AM PDT 6:26 PM PDT
Civil Twilight 6:42 AM PDT 6:53 PM PDT
Nautical Twilight 6:12 AM PDT 7:23 PM PDT
Astronomical Twilight 5:42 AM PDT 7:53 PM PDT
Moon 5:06 AM PDT 5:12 PM PDT
Length of Visible Light 12h 10m
Length of Day
11h 18m
Waning Crescent, 4% of the Moon is Illuminated
Oct 13
Waning Crescent
Oct 15
New
Oct 21
First Quarter
Oct 29
Full
Nov 6
Last Quarter

Hourly Weather History & Observations

Time (PDT) Temp. Dew Point Humidity Pressure Visibility Wind Dir Wind Speed Gust Speed Precip Events Conditions
12:53 AM 54.0 °F 48.9 °F 83% 30.20 in 9.0 mi NW 4.6 mph - N/A   Clear
1:53 AM 54.0 °F 50.0 °F 86% 30.22 in 9.0 mi NNW 6.9 mph - N/A   Clear
2:53 AM 54.0 °F 48.0 °F 80% 30.23 in 9.0 mi NNW 5.8 mph - N/A   Clear
3:53 AM 53.1 °F 48.0 °F 83% 30.23 in 8.0 mi NNW 5.8 mph - N/A   Clear
4:53 AM 53.1 °F 48.0 °F 83% 30.24 in 7.0 mi NNW 5.8 mph - N/A   Clear
5:53 AM 51.1 °F 46.9 °F 86% 30.24 in 6.0 mi NW 6.9 mph - N/A   Clear
6:53 AM 53.1 °F 48.0 °F 83% 30.25 in 6.0 mi NW 8.1 mph - N/A   Haze
7:53 AM 53.1 °F 48.0 °F 83% 30.25 in 4.0 mi WNW 3.5 mph - N/A   Haze
8:53 AM 57.9 °F 50.0 °F 75% 30.27 in 7.0 mi NNW 10.4 mph - N/A   Clear
9:53 AM 62.1 °F 50.0 °F 65% 30.28 in 9.0 mi NW 10.4 mph - N/A   Clear
10:53 AM 66.0 °F 50.0 °F 56% 30.28 in 9.0 mi NNW 8.1 mph - N/A   Clear
11:53 AM 69.1 °F 48.9 °F 49% 30.27 in 10.0 mi NNW 10.4 mph - N/A   Clear
1:53 PM 72.0 °F 48.9 °F 44% 30.21 in 10.0 mi NW 6.9 mph - N/A   Clear
2:53 PM 72.0 °F 48.9 °F 44% 30.18 in 10.0 mi NW 4.6 mph - N/A   Clear
3:53 PM 73.9 °F 48.9 °F 41% 30.17 in 10.0 mi NW 4.6 mph - N/A   Clear
5:53 PM 72.0 °F 50.0 °F 46% 30.15 in 10.0 mi NW 4.6 mph - N/A   Clear
7:53 PM 68.0 °F 50.0 °F 52% 30.17 in 10.0 mi Calm Calm - N/A   Clear
8:53 PM 63.0 °F 50.0 °F 63% 30.17 in 9.0 mi Calm Calm - N/A   Clear
10:53 PM - - N/A% 30.18 in 9.0 mi Calm Calm - N/A   Clear
11:53 PM - - N/A% 30.17 in 8.0 mi Calm Calm - N/A   Clear